Tracking 29790 objects as of 12-Oct-2024
HD Live streaming from Space Station
objects crossing your sky now

BREEZE-M DEB

Track BREEZE-M DEB now!
10-day predictions


NORAD ID: 38651
Int'l Code: 2008-011DA
Perigee: 970.1 km
Apogee: 26,362.9 km
Inclination: 49.0 °
Period: 470.5 minutes
Semi major axis: 20037 km
RCS: 0.3699 m2 (medium)
Launch date: March 14, 2008
Source: Commonwealth of Independent States (former USSR) (CIS)
Launch site: TYURATAM MISSILE AND SPACE COMPLEX (TTMTR)

Note: This is SATELLITE DEBRIS
Your satellite tracking list
Your tracking list is empty




NASA's NSSDC Master Catalog

Two Line Element Set (TLE):
1 38651U 08011DA  24284.65377333  .00000585  00000-0  29712-1 0  9990
2 38651  48.9604 255.6396 6336336   7.7840 140.2896  3.06082292156057
Source of the keplerian elements: AFSPC